This is the latest recevied weather packets stored in our database for station/object NR0A-4. If no packets are shown the sender has not sent any weather packets the latest 10 day(s).
| Time | Temp. | Humidity | Pressure | Rain* | Wind** | Luminosity | Snow |
|---|---|---|---|---|---|---|---|
| 1788543304 | 32.22° C | 62% | 1012 hPa | 0 mm | - | 737 W/m² | - |
| 1788543004 | 32.22° C | 61% | 1012.1 hPa | 0 mm | - | 735 W/m² | - |
| 1788542704 | 32.22° C | 61% | 1012.1 hPa | 0 mm | - | 731 W/m² | - |
| 1788542404 | 32.22° C | 62% | 1012.1 hPa | 0 mm | - | 729 W/m² | - |
| 1788542104 | 32.22° C | 60% | 1012.2 hPa | 0 mm | - | 722 W/m² | - |
| 1788541804 | 32.22° C | 60% | 1012.2 hPa | 0 mm | - | 719 W/m² | - |
| 1788541504 | 32.22° C | 59% | 1012.1 hPa | 0 mm | - | 715 W/m² | - |
| 1788541203 | 32.78° C | 59% | 1012.2 hPa | 0 mm | - | 715 W/m² | - |
| 1788540904 | 32.78° C | 61% | 1012.1 hPa | 0 mm | - | 710 W/m² | - |
| 1788540604 | 32.22° C | 61% | 1012.1 hPa | 0 mm | - | 698 W/m² | - |
| 1788540304 | 32.22° C | 61% | 1012.1 hPa | 0 mm | - | 693 W/m² | - |
| 1788540004 | 32.22° C | 63% | 1012 hPa | 0 mm | - | 689 W/m² | - |
| 1788539704 | 32.22° C | 63% | 1012 hPa | 0 mm | - | 659 W/m² | - |
| 1788539405 | 31.67° C | 64% | 1012 hPa | 0 mm | - | 659 W/m² | - |
| 1788539104 | 31.67° C | 63% | 1012.1 hPa | 0 mm | - | 659 W/m² | - |
| 1788538804 | 31.67° C | 64% | 1012 hPa | 0 mm | - | 650 W/m² | - |
| 1788538504 | 31.11° C | 63% | 1012 hPa | 0 mm | - | 642 W/m² | - |
| 1788538204 | 31.11° C | 62% | 1012 hPa | 0 mm | - | 635 W/m² | - |
| 1788537904 | 31.11° C | 63% | 1012.1 hPa | 0 mm | - | 622 W/m² | - |
| 1788537604 | 31.11° C | 65% | 1012.1 hPa | 0 mm | - | 612 W/m² | - |
| 1788537304 | 30.56° C | 67% | 1012.1 hPa | 0 mm | - | 601 W/m² | - |
| 1788537005 | 30.56° C | 67% | 1012.1 hPa | 0 mm | - | 591 W/m² | - |
| 1788536704 | 30° C | 67% | 1012.1 hPa | 0 mm | - | 578 W/m² | - |
| 1788536404 | 30° C | 67% | 1012 hPa | 0 mm | - | 568 W/m² | - |
| 1788536104 | 29.44° C | 68% | 1012 hPa | 0 mm | - | 557 W/m² | - |
* Rain latest hour (hover to see other rain measurements)
** Current wind speed in m/s (hover to see current wind gust speed)